This demonstration page uses our WeatherBlox Daily Observations layout. Learn more.

38.88101, -77.10428

Hourly Observations for October 7, 2016

Temp ( °F °C ) Dew Point ( °F °C ) Humidity (%) Winds ( mph kmh ) Pressure ( in mb ) Visibility ( mi km ) Precip ( " mm )
12:52 am 00:52 Cloudy 65 18.3 61 16.1 87 87 NE 3 6 30.27 1025 10 16.09344 0 0
1:52 am 01:52 Cloudy 65 18.3 60 15.6 84 84 ENE 6 9 30.27 1025 10 16.09344 0 0
2:52 am 02:52 Mostly Clear 63 17.2 60 15.6 90 90 NNE 8 13 30.24 1024 10 16.09344 0 0
3:52 am 03:52 Mostly Clear 62 16.7 60 15.6 93 93 NNE 7 11 30.24 1024 10 16.09344 0 0
4:52 am 04:52 Partly Cloudy 62 16.7 60 15.6 93 93 NE 6 9 30.24 1024 10 16.09344 0 0
5:52 am 05:52 Mostly Cloudy 62 16.7 60 15.6 93 93 NNE 7 11 30.24 1024 10 16.09344 0 0
6:52 am 06:52 Cloudy 62 16.7 60 15.6 93 93 NNE 5 7 30.24 1024 10 16.09344 0 0
7:52 am 07:52 Cloudy 63 17.2 61 16.1 93 93 NE 6 9 30.27 1025 10 16.09344 0 0
8:19 am 08:19 Cloudy 63 17.2 61 16.1 93 93 NE 6 9 30.27 1025 10 16.09344 0 0
8:52 am 08:52 Cloudy 64 17.8 61 16.1 90 90 ENE 13 20 30.27 1025 10 16.09344 0 0
9:17 am 09:17 Cloudy 64 17.8 62 16.7 93 93 NE 12 19 30.27 1025 9 14.484096 0 0
9:52 am 09:52 Cloudy 64 17.8 62 16.7 93 93 ENE 12 19 30.24 1024 10 16.09344 0 0
10:30 am 10:30 Cloudy 64 18 63 17 94 94 ENE 9 15 30.24 1024 10 16.09344 0 0
10:52 am 10:52 Cloudy 65 18.3 63 17.2 93 93 NE 7 11 30.24 1024 10 16.09344 0 0
11:46 am 11:46 Cloudy 66 19 63 17 88 88 NE 6 9 30.24 1024 10 16.09344 0 0
11:52 am 11:52 Cloudy 67 19.4 63 17.2 87 87 NE 6 9 30.24 1024 10 16.09344 0 0
12:52 pm 12:52 Cloudy 68 20 63 17.2 84 84 NNE 6 9 30.24 1024 10 16.09344 0 0
1:06 pm 13:06 Cloudy 70 21 63 17 78 78 N 7 11 30.24 1024 10 16.09344 0 0
1:52 pm 13:52 Cloudy 70 21.1 63 17.2 79 79 ENE 8 13 30.21 1023 10 16.09344 0 0
2:52 pm 14:52 Mostly Cloudy 71 21.7 64 17.8 79 79 NE 10 17 30.21 1023 10 16.09344 0 0
3:52 pm 15:52 Mostly Cloudy 72 22.2 64 17.8 76 76 E 6 9 30.18 1022 10 16.09344 0 0
4:52 pm 16:52 Cloudy 73 22.8 64 17.8 74 74 NE 9 15 30.18 1022 10 16.09344 0 0
5:12 pm 17:12 Cloudy 72 22 64 18 78 78 ENE 8 13 30.15 1021 10 16.09344 0 0
5:52 pm 17:52 Cloudy 72 22.2 65 18.3 79 79 ENE 8 13 30.15 1021 10 16.09344 0 0
6:52 pm 18:52 Cloudy 71 21.7 64 17.8 79 79 ENE 7 11 30.15 1021 10 16.09344 0 0
7:52 pm 19:52 Cloudy 70 21.1 64 17.8 82 82 E 8 13 30.15 1021 10 16.09344 0 0
8:52 pm 20:52 Cloudy 69 20.6 64 17.8 84 84 E 6 9 30.15 1021 10 16.09344 0 0
9:52 pm 21:52 Cloudy 68 20 64 17.8 87 87 E 7 11 30.15 1021 10 16.09344 0 0
10:52 pm 22:52 Cloudy 67 19.4 64 17.8 91 91 ENE 7 11 30.12 1020 10 16.09344 0 0
11:52 pm 23:52 Cloudy 66 18.9 64 17.8 93 93 ENE 8 13 30.12 1020 10 16.09344 0 0

Powered by AerisWeather